| time (UTC) | temp F | wind direction | speed MPH | gust MPH | rain 1hr in | rain 24hr in | rain mn in | humidity % | barometer mb |
| 20260904031008 | 69 | 227 | 2.0 | 6.0 | 0.00 | 0.72 | 0.72 | 96 | 1012.6 |
| 20260904025956 | 69 | 205 | 2.0 | 4.0 | 0.00 | 0.72 | 0.72 | 96 | 1012.6 |
| 20260904023838 | 69 | 238 | 2.0 | 6.0 | 0.00 | 0.72 | 0.72 | 96 | 1012.7 |
| 20260904022808 | 69 | 190 | 2.0 | 6.0 | 0.00 | 0.72 | 0.72 | 96 | 1012.5 |
| 20260904021811 | 69 | 225 | 1.0 | 6.0 | 0.00 | 0.72 | 0.72 | 96 | 1012.7 |
| 20260904013406 | 69 | 191 | 1.0 | 6.0 | 0.00 | 0.72 | 0.72 | 96 | 1011.8 |
| 20260904012347 | 69 | 180 | 1.0 | 7.0 | 0.00 | 0.72 | 0.72 | 96 | 1012.0 |
| 20260904011326 | 69 | 172 | 2.0 | 7.0 | 0.00 | 0.72 | 0.72 | 96 | 1011.9 |
| 20260904005240 | 69 | 263 | 0.0 | 4.0 | 0.00 | 0.72 | 0.72 | 96 | 1012.3 |
| 20260904004234 | 69 | 166 | 0.0 | 0.0 | 0.00 | 0.72 | 0.72 | 97 | 1012.2 |
| 20260904003201 | 69 | 219 | 0.0 | 4.0 | 0.00 | 0.72 | 0.72 | 97 | 1012.5 |
| 20260904002146 | 69 | 152 | 1.0 | 6.0 | 0.00 | 0.72 | 0.72 | 97 | 1012.3 |
| 20260904001156 | 69 | 120 | 2.0 | 6.0 | 0.00 | 0.72 | 0.72 | 97 | 1012.1 |
| 20260904000140 | 69 | 109 | 2.0 | 6.0 | 0.00 | 0.72 | 0.72 | 97 | 1012.4 |
| 20260903235129 | 69 | 124 | 1.0 | 6.0 | 0.09 | 0.72 | 0.72 | 97 | 1013.1 |
| 20260903232934 | 69 | 122 | 0.0 | 4.0 | 0.00 | 0.70 | 0.70 | 97 | 1013.3 |
| 20260903231941 | 70 | 126 | 0.0 | 3.0 | 0.05 | 0.70 | 0.70 | 97 | 1014.0 |
| 20260903230955 | 70 | 121 | 0.0 | 2.0 | 0.13 | 0.70 | 0.70 | 97 | 1014.6 |
| 20260903230006 | 70 | 115 | 0.0 | 0.0 | 0.18 | 0.67 | 0.68 | 96 | 1014.9 |
| 20260903224957 | 70 | 26 | 0.0 | 0.0 | 0.06 | 0.65 | 0.65 | 96 | 1014.8 |
| 20260903223937 | 69 | 319 | 0.0 | 8.0 | 0.13 | 0.64 | 0.64 | 96 | 1014.9 |
| 20260903222950 | 69 | 340 | 0.0 | 8.0 | 0.25 | 0.61 | 0.61 | 96 | 1014.9 |
| 20260903221933 | 69 | 65 | 2.0 | 5.0 | 3.43 | 0.42 | 0.48 | 95 | 1014.9 |
| 20260903220914 | 70 | 321 | 2.0 | 23.0 | 0.16 | 0.09 | 0.10 | 93 | 1015.4 |
| 20260903214206 | 79 | 22 | 0.0 | 1.0 | 0.00 | 0.00 | 0.00 | 84 | 1012.1 |
| 20260903213140 | 80 | 121 | 0.0 | 1.0 | 0.00 | 0.00 | 0.00 | 78 | 1012.3 |
| 20260903212203 | 80 | 22 | 0.0 | 0.0 | 0.00 | 0.00 | 0.00 | 80 | 1012.0 |
| 20260903210027 | 81 | 51 | 0.0 | 0.0 | 0.00 | 0.00 | 0.00 | 81 | 1011.3 |
| 20260903205021 | 82 | 62 | 0.0 | 0.0 | 0.00 | 0.00 | 0.00 | 79 | 1010.9 |
| 20260903204040 | 84 | 134 | 0.0 | 0.0 | 0.00 | 0.00 | 0.00 | 77 | 1010.2 |
| 20260903203053 | 85 | 24 | 0.0 | 1.0 | 0.00 | 0.00 | 0.00 | 77 | 1010.1 |
| 20260903202027 | 86 | 36 | 0.0 | 1.0 | 0.00 | 0.00 | 0.00 | 75 | 1010.3 |
| 20260903201019 | 86 | 38 | 0.0 | 4.0 | 0.00 | 0.00 | 0.00 | 78 | 1010.2 |
| 20260903200040 | 85 | 0 | 0.0 | 6.0 | 0.00 | 0.00 | 0.00 | 77 | 1010.5 |
| 20260903195101 | 89 | 321 | 1.0 | 6.0 | 0.00 | 0.00 | 0.00 | 73 | 1010.5 |
| 20260903194052 | 90 | 332 | 1.0 | 4.0 | 0.00 | 0.00 | 0.00 | 74 | 1010.5 |
| 20260903193030 | 89 | 335 | 0.0 | 5.0 | 0.00 | 0.00 | 0.00 | 74 | 1010.7 |
| 20260903192035 | 87 | 313 | 0.0 | 5.0 | 0.00 | 0.00 | 0.00 | 77 | 1010.9 |
| 20260903191014 | 87 | 11 | 0.0 | 1.0 | 0.00 | 0.00 | 0.00 | 77 | 1011.3 |
| 20260903190033 | 86 | 32 | 1.0 | 7.0 | 0.00 | 0.00 | 0.00 | 76 | 1011.6 |
| 20260903185017 | 88 | 338 | 1.0 | 7.0 | 0.00 | 0.00 | 0.00 | 74 | 1011.6 |
| 20260903181705 | 92 | 258 | 2.0 | 10.0 | 0.00 | 0.00 | 0.00 | 71 | 1011.4 |
| 20260903180631 | 92 | 343 | 2.0 | 10.0 | 0.00 | 0.00 | 0.00 | 69 | 1011.6 |
| 20260903175654 | 92 | 294 | 3.0 | 6.0 | 0.00 | 0.00 | 0.00 | 71 | 1011.6 |
| 20260903174710 | 91 | 274 | 2.0 | 5.0 | 0.00 | 0.00 | 0.00 | 71 | 1011.7 |
| 20260903173651 | 90 | 304 | 1.0 | 5.0 | 0.00 | 0.00 | 0.00 | 71 | 1011.9 |
| 20260903172633 | 90 | 267 | 1.0 | 5.0 | 0.00 | 0.00 | 0.00 | 73 | 1012.2 |
| 20260903170428 | 89 | 298 | 3.0 | 8.0 | 0.00 | 0.00 | 0.00 | 72 | 1012.5 |
| 20260903165404 | 90 | 307 | 2.0 | 8.0 | 0.00 | 0.00 | 0.00 | 74 | 1012.5 |
| 20260903164334 | 90 | 169 | 2.0 | 7.0 | 0.00 | 0.00 | 0.00 | 71 | 1012.5 |
| 20260903163306 | 89 | 255 | 3.0 | 7.0 | 0.00 | 0.00 | 0.00 | 73 | 1012.6 |
| 20260903162251 | 90 | 266 | 3.0 | 7.0 | 0.00 | 0.00 | 0.00 | 73 | 1012.8 |
| 20260903161227 | 89 | 281 | 3.0 | 6.0 | 0.00 | 0.00 | 0.00 | 73 | 1012.8 |
| 20260903160152 | 88 | 230 | 1.0 | 5.0 | 0.00 | 0.00 | 0.00 | 73 | 1012.7 |
| 20260903155152 | 87 | 244 | 2.0 | 5.0 | 0.00 | 0.00 | 0.00 | 74 | 1012.5 |
| 20260903154144 | 86 | 275 | 1.0 | 5.0 | 0.00 | 0.00 | 0.00 | 76 | 1012.6 |
| 20260903153110 | 86 | 272 | 2.0 | 5.0 | 0.00 | 0.00 | 0.00 | 77 | 1012.7 |
| 20260903152123 | 86 | 269 | 2.0 | 5.0 | 0.00 | 0.00 | 0.00 | 75 | 1012.7 |
| 20260903150008 | 87 | 277 | 3.0 | 6.0 | 0.00 | 0.00 | 0.00 | 76 | 1012.7 |
| 20260903145032 | 86 | 283 | 3.0 | 7.0 | 0.00 | 0.00 | 0.00 | 78 | 1012.7 |
| 20260903144039 | 85 | 290 | 3.0 | 7.0 | 0.00 | 0.00 | 0.00 | 76 | 1012.8 |
| 20260903141911 | 84 | 289 | 2.0 | 6.0 | 0.00 | 0.00 | 0.00 | 80 | 1012.8 |
| 20260903135756 | 83 | 202 | 3.0 | 6.0 | 0.00 | 0.00 | 0.00 | 81 | 1012.8 |
| 20260903134758 | 83 | 250 | 3.0 | 5.0 | 0.00 | 0.00 | 0.00 | 80 | 1012.8 |
| 20260903133815 | 82 | 228 | 2.0 | 5.0 | 0.00 | 0.00 | 0.00 | 79 | 1012.7 |
| 20260903131558 | 80 | 230 | 0.0 | 6.0 | 0.00 | 0.00 | 0.00 | 82 | 1013.1 |
| 20260903130526 | 79 | 218 | 1.0 | 6.0 | 0.00 | 0.00 | 0.00 | 83 | 1013.1 |
| 20260903125542 | 78 | 207 | 1.0 | 4.0 | 0.00 | 0.00 | 0.00 | 84 | 1013.1 |
| 20260903124520 | 77 | 219 | 1.0 | 3.0 | 0.00 | 0.00 | 0.00 | 85 | 1013.2 |
| 20260903123500 | 76 | 159 | 1.0 | 3.0 | 0.00 | 0.00 | 0.00 | 86 | 1013.2 |
| 20260903121339 | 75 | 198 | 0.0 | 4.0 | 0.00 | 0.00 | 0.00 | 88 | 1013.1 |
| 20260903120354 | 74 | 207 | 0.0 | 4.0 | 0.00 | 0.00 | 0.00 | 88 | 1013.1 |
| 20260903115343 | 73 | 219 | 0.0 | 1.0 | 0.00 | 0.00 | 0.00 | 88 | 1013.0 |
| 20260903114330 | 73 | 146 | 2.0 | 5.0 | 0.00 | 0.00 | 0.00 | 88 | 1013.0 |
| 20260903113259 | 73 | 217 | 0.0 | 5.0 | 0.00 | 0.00 | 0.00 | 87 | 1013.0 |
| 20260903111148 | 73 | 240 | 0.0 | 2.0 | 0.00 | 0.00 | 0.00 | 88 | 1012.9 |
| 20260903110116 | 73 | 188 | 0.0 | 3.0 | 0.00 | 0.00 | 0.00 | 88 | 1013.0 |
| 20260903105113 | 73 | 132 | 0.0 | 2.0 | 0.00 | 0.00 | 0.00 | 88 | 1013.0 |
| 20260903104048 | 74 | 151 | 0.0 | 6.0 | 0.00 | 0.00 | 0.00 | 86 | 1012.7 |
| 20260903103055 | 74 | 163 | 0.0 | 5.0 | 0.00 | 0.00 | 0.00 | 85 | 1013.1 |
| 20260903102048 | 74 | 113 | 0.0 | 2.0 | 0.00 | 0.00 | 0.00 | 86 | 1013.4 |
| 20260903095924 | 75 | 122 | 0.0 | 0.0 | 0.00 | 0.00 | 0.00 | 83 | 1013.4 |
| 20260903094857 | 75 | 194 | 0.0 | 0.0 | 0.00 | 0.00 | 0.00 | 83 | 1013.2 |
| 20260903093856 | 75 | 355 | 0.0 | 3.0 | 0.00 | 0.00 | 0.00 | 82 | 1013.1 |
| 20260903092918 | 76 | 224 | 1.0 | 5.0 | 0.00 | 0.00 | 0.00 | 81 | 1012.4 |
| 20260903091934 | 74 | 32 | 0.0 | 2.0 | 0.00 | 0.00 | 0.00 | 81 | 1012.7 |
| 20260903090952 | 75 | 193 | 2.0 | 4.0 | 0.00 | 0.00 | 0.00 | 81 | 1012.1 |
| 20260903085922 | 74 | 205 | 1.0 | 4.0 | 0.00 | 0.00 | 0.00 | 81 | 1012.2 |
| 20260903084920 | 74 | 241 | 1.0 | 3.0 | 0.00 | 0.00 | 0.00 | 82 | 1012.1 |
| 20260903083917 | 74 | 217 | 1.0 | 4.0 | 0.00 | 0.00 | 0.00 | 81 | 1011.9 |
| 20260903082901 | 74 | 192 | 1.0 | 5.0 | 0.00 | 0.00 | 0.00 | 81 | 1011.9 |
| 20260903081908 | 74 | 206 | 2.0 | 5.0 | 0.00 | 0.00 | 0.00 | 82 | 1011.9 |
| 20260903080910 | 74 | 200 | 1.0 | 4.0 | 0.00 | 0.00 | 0.00 | 84 | 1011.9 |
| 20260903075919 | 73 | 203 | 0.0 | 2.0 | 0.00 | 0.00 | 0.00 | 84 | 1012.0 |
| 20260903074846 | 73 | 194 | 0.0 | 2.0 | 0.00 | 0.00 | 0.00 | 84 | 1012.1 |
| 20260903073828 | 73 | 229 | 0.0 | 0.0 | 0.00 | 0.00 | 0.00 | 85 | 1012.3 |
| 20260903072755 | 73 | 229 | 0.0 | 0.0 | 0.00 | 0.00 | 0.00 | 85 | 1012.6 |
| 20260903071812 | 73 | 229 | 0.0 | 0.0 | 0.00 | 0.00 | 0.00 | 85 | 1012.3 |
| 20260903070754 | 72 | 250 | 0.0 | 0.0 | 0.00 | 0.00 | 0.00 | 87 | 1012.2 |
| 20260903065737 | 72 | 250 | 0.0 | 0.0 | 0.00 | 0.00 | 0.00 | 89 | 1012.2 |
| 20260903064736 | 73 | 250 | 0.0 | 1.0 | 0.00 | 0.00 | 0.00 | 87 | 1012.4 |
| 20260903061523 | 74 | 342 | 0.0 | 0.0 | 0.00 | 0.00 | 0.00 | 83 | 1013.0 |
| 20260903060449 | 75 | 342 | 0.0 | 0.0 | 0.00 | 0.00 | 0.00 | 82 | 1013.1 |
| 20260903055459 | 76 | 23 | 0.0 | 1.0 | 0.00 | 0.00 | 0.00 | 80 | 1013.2 |
| 20260903054519 | 76 | 57 | 0.0 | 3.0 | 0.00 | 0.00 | 0.00 | 79 | 1013.5 |
| 20260903050007 | 81 | 259 | 1.0 | 4.0 | 0.00 | 0.00 | 0.00 | 81 | 1011.8 |
| 20260903043844 | 81 | 246 | 1.0 | 3.0 | 0.00 | 0.00 | 0.00 | 81 | 1011.5 |
| 20260903042853 | 81 | 238 | 1.0 | 4.0 | 0.00 | 0.00 | 0.00 | 80 | 1011.6 |
| 20260903041854 | 81 | 220 | 1.0 | 4.0 | 0.00 | 0.00 | 0.00 | 80 | 1011.4 |
| 20260903035748 | 80 | 243 | 1.0 | 5.0 | 0.00 | 0.00 | 0.00 | 80 | 1011.1 |
| 20260903033632 | 82 | 216 | 3.0 | 6.0 | 0.00 | 0.00 | 0.00 | 78 | 1010.9 |
| 20260903032637 | 82 | 256 | 2.0 | 7.0 | 0.00 | 0.00 | 0.00 | 77 | 1010.5 |